^^
Station Historical Data
 
Daily Summary for December 06, 2019 Units:  English    Metric   Both
« Previous Day
Next Day »
Daily Weekly Monthly Yearly Custom
  Current: High: Low: Average:
Temperature: 23.8 °F 31.8 °F 19.7 °F 25.5 °F
Dew Point: 18.2 °F 26.3 °F 14.6 °F 20.4 °F
Humidity: 79% 85% 74% 81%
Wind Speed: 0mph 13mph 0mph 3.8mph
Wind Gust: 0mph 20mph - -
WindCalm - - NW
Pressure: 30.37 in 30.41 in 30.17 in -
Precipitation: 0 in      
Historical Graphs
 
 
Tabular Data for December 06, 2019
Time Temperature Dew Point Pressure Wind Wind Speed Wind Gust Humidity Rainfall Rate (Hourly) solar Conditions
00:00 31.8 °F 26.3 °F 30.17 in NNW 9 mph 13 mph 80% 0 in 0.00 W/m2 OVC
00:05 31.8 °F 26.3 °F 30.18 in NNW 7 mph 17 mph 80% 0 in 0.00 W/m2 OVC
00:10 31.8 °F 26.3 °F 30.18 in NNW 9 mph 15 mph 80% 0 in 0.00 W/m2 OVC
00:15 31.8 °F 26.3 °F 30.18 in NNW 6 mph 14 mph 80% 0 in 0.00 W/m2 OVC
00:20 31.8 °F 26.3 °F 30.18 in NNW 9 mph 14 mph 80% 0 in 0.00 W/m2 OVC
00:25 31.8 °F 26.3 °F 30.18 in NNW 10 mph 16 mph 80% 0 in 0.00 W/m2 OVC
00:30 31.8 °F 26.3 °F 30.18 in NNW 9 mph 14 mph 80% 0 in 0.00 W/m2 OVC
00:35 31.7 °F 26.2 °F 30.18 in NNW 6 mph 14 mph 80% 0 in 0.00 W/m2 OVC
00:40 31.7 °F 26.2 °F 30.19 in NNW 8 mph 18 mph 80% 0 in 0.00 W/m2 OVC
00:45 31.6 °F 26.2 °F 30.19 in NNW 7 mph 14 mph 80% 0 in 0.00 W/m2 OVC
00:50 31.6 °F 26.1 °F 30.19 in NNW 9 mph 16 mph 80% 0 in 0.00 W/m2 OVC
00:55 31.5 °F 26 °F 30.19 in NW 10 mph 20 mph 80% 0 in 0.00 W/m2 OVC
01:00 31.4 °F 26 °F 30.20 in NNW 12 mph 20 mph 80% 0 in 0.00 W/m2 OVC
01:05 31.4 °F 25.6 °F 30.20 in NNW 12 mph 20 mph 79% 0 in 0.00 W/m2 OVC
01:10 31.4 °F 25.6 °F 30.20 in NW 13 mph 20 mph 79% 0 in 0.00 W/m2 OVC
01:15 31.4 °F 25.6 °F 30.20 in NNW 7 mph 16 mph 79% 0 in 0.00 W/m2 OVC
01:20 31.3 °F 25.6 °F 30.21 in NNW 7 mph 14 mph 79% 0 in 0.00 W/m2 OVC
01:25 31.3 °F 25.5 °F 30.21 in NNW 9 mph 16 mph 79% 0 in 0.00 W/m2 OVC
01:30 31.3 °F 25.5 °F 30.21 in NNW 9 mph 17 mph 79% 0 in 0.00 W/m2 OVC
01:35 31.4 °F 25.6 °F 30.21 in NNW 9 mph 15 mph 79% 0 in 0.00 W/m2 OVC
01:40 31.4 °F 25.6 °F 30.22 in NNW 9 mph 13 mph 79% 0 in 0.00 W/m2 OVC
01:45 31.4 °F 25.6 °F 30.22 in NW 5 mph 14 mph 79% 0 in 0.00 W/m2 OVC
01:50 31.4 °F 25.6 °F 30.22 in NW 10 mph 14 mph 79% 0 in 0.00 W/m2 OVC
01:55 31.3 °F 25.5 °F 30.23 in NNW 5 mph 12 mph 79% 0 in 0.00 W/m2 OVC
02:00 31.2 °F 25.4 °F 30.23 in NNW 7 mph 16 mph 79% 0 in 0.00 W/m2 OVC
02:05 31.2 °F 25.4 °F 30.23 in NW 9 mph 14 mph 79% 0 in 0.00 W/m2 OVC
02:10 31.1 °F 25.3 °F 30.23 in NNW 7 mph 14 mph 79% 0 in 0.00 W/m2 OVC
02:15 31 °F 25.2 °F 30.23 in NNW 8 mph 15 mph 79% 0 in 0.00 W/m2 OVC
02:20 30.9 °F 25.2 °F 30.24 in NNW 8 mph 18 mph 79% 0 in 0.00 W/m2 OVC
02:25 30.8 °F 25.1 °F 30.24 in NW 12 mph 18 mph 79% 0 in 0.00 W/m2 OVC
02:30 30.8 °F 25.1 °F 30.25 in NW 8 mph 18 mph 79% 0 in 0.00 W/m2 OVC
02:35 30.8 °F 25.1 °F 30.25 in NW 12 mph 18 mph 79% 0 in 0.00 W/m2 OVC
02:40 30.8 °F 25.1 °F 30.25 in NNW 8 mph 15 mph 79% 0 in 0.00 W/m2 OVC
02:45 30.7 °F 25 °F 30.25 in NNW 6 mph 12 mph 79% 0 in 0.00 W/m2 OVC
02:50 30.7 °F 25 °F 30.25 in NW 7 mph 14 mph 79% 0 in 0.00 W/m2 OVC
02:55 30.7 °F 25 °F 30.25 in NNW 6 mph 12 mph 79% 0 in 0.00 W/m2 OVC
03:00 30.7 °F 25 °F 30.25 in NNW 5 mph 13 mph 79% 0 in 0.00 W/m2 OVC
03:05 30.7 °F 23.4 °F 30.25 in NNW 1 mph 10 mph 74% 0 in 0.00 W/m2 OVC
03:10 30.6 °F 23.3 °F 30.26 in NNW 5 mph 10 mph 74% 0 in 0.00 W/m2 OVC
03:15 30.6 °F 23.3 °F 30.26 in Calm   9 mph 74% 0 in 0.00 W/m2 OVC
03:20 30.5 °F 23.2 °F 30.26 in NW 7 mph 12 mph 74% 0 in 0.00 W/m2 OVC
03:25 30.5 °F 23.2 °F 30.26 in NNW 6 mph 12 mph 74% 0 in 0.00 W/m2 OVC
03:30 30.3 °F 23 °F 30.26 in NNW 3 mph 14 mph 74% 0 in 0.00 W/m2 OVC
03:35 30.2 °F 22.9 °F 30.26 in NNW 9 mph 12 mph 74% 0 in 0.00 W/m2 OVC
03:40 30.1 °F 22.8 °F 30.26 in Calm   12 mph 74% 0 in 0.00 W/m2 OVC
03:45 30 °F 22.7 °F 30.26 in NW 5 mph 8 mph 74% 0 in 0.00 W/m2 OVC
03:50 29.9 °F 22.6 °F 30.26 in NW 7 mph 10 mph 74% 0 in 0.00 W/m2 OVC
03:55 29.8 °F 22.5 °F 30.27 in Calm   9 mph 74% 0 in 0.00 W/m2 OVC
04:00 29.7 °F 22.4 °F 30.27 in NW 1 mph 6 mph 74% 0 in 0.00 W/m2 OVC
04:05 29.6 °F 22.3 °F 30.27 in NW 2 mph 12 mph 74% 0 in 0.00 W/m2 OVC
04:10 29.4 °F 22.1 °F 30.27 in NW 6 mph 10 mph 74% 0 in 0.00 W/m2 OVC
04:15 29.3 °F 22 °F 30.27 in NW 5 mph 9 mph 74% 0 in 0.00 W/m2 OVC
04:20 29.1 °F 21.9 °F 30.27 in NW 5 mph 10 mph 74% 0 in 0.00 W/m2 OVC
04:25 29 °F 21.7 °F 30.27 in NW 7 mph 13 mph 74% 0 in 0.00 W/m2 OVC
04:30 28.8 °F 21.6 °F 30.27 in NW 8 mph 13 mph 74% 0 in 0.00 W/m2 OVC
04:35 28.5 °F 21.3 °F 30.28 in NW 7 mph 13 mph 74% 0 in 0.00 W/m2 OVC
04:40 28.3 °F 21 °F 30.28 in NW 7 mph 12 mph 74% 0 in 0.00 W/m2 OVC
04:45 28 °F 20.7 °F 30.28 in NW 9 mph 12 mph 74% 0 in 0.00 W/m2 OVC
04:50 27.6 °F 20.4 °F 30.28 in NW 9 mph 15 mph 74% 0 in 0.00 W/m2 OVC
04:55 27.3 °F 20.1 °F 30.28 in NW 7 mph 13 mph 74% 0 in 0.00 W/m2 OVC
05:00 27 °F 19.8 °F 30.29 in NW 2 mph 13 mph 74% 0 in 0.00 W/m2 OVC
05:05 26.8 °F 21.2 °F 30.29 in NW 2 mph 9 mph 79% 0 in 0.00 W/m2 OVC
05:10 26.6 °F 20.9 °F 30.29 in NW 3 mph 8 mph 79% 0 in 0.00 W/m2 OVC
05:15 26.3 °F 20.6 °F 30.29 in NW 6 mph 14 mph 79% 0 in 0.00 W/m2 OVC
05:20 25.9 °F 20.3 °F 30.29 in NW 6 mph 12 mph 79% 0 in 0.00 W/m2 OVC
05:25 25.6 °F 20 °F 30.29 in WNW 6 mph 9 mph 79% 0 in 0.00 W/m2 OVC
05:30 25.3 °F 19.7 °F 30.30 in WNW 7 mph 10 mph 79% 0 in 0.00 W/m2 OVC
05:35 25.1 °F 19.5 °F 30.30 in WNW 5 mph 12 mph 79% 0 in 0.00 W/m2 OVC
05:40 24.8 °F 19.2 °F 30.30 in WNW 7 mph 15 mph 79% 0 in 0.00 W/m2 OVC
05:45 24.5 °F 18.9 °F 30.30 in NW 7 mph 10 mph 79% 0 in 0.00 W/m2 OVC
05:50 24.3 °F 18.7 °F 30.30 in NW 7 mph 10 mph 79% 0 in 0.00 W/m2 OVC
05:55 24.1 °F 18.5 °F 30.30 in NW 6 mph 10 mph 79% 0 in 0.00 W/m2 OVC
06:00 23.9 °F 18.3 °F 30.31 in WNW 7 mph 10 mph 79% 0 in 0.00 W/m2 OVC
06:05 23.6 °F 19.8 °F 30.31 in WNW 6 mph 8 mph 85% 0 in 0.00 W/m2 CLR
06:10 23.4 °F 19.6 °F 30.31 in WNW 6 mph 12 mph 85% 0 in 0.00 W/m2 CLR
06:15 23.2 °F 19.4 °F 30.31 in WNW 6 mph 9 mph 85% 0 in 0.00 W/m2 CLR
06:20 23 °F 19.1 °F 30.31 in NW 7 mph 12 mph 85% 0 in 0.00 W/m2 CLR
06:25 22.7 °F 18.9 °F 30.31 in NW 5 mph 12 mph 85% 0 in 0.00 W/m2 CLR
06:30 22.6 °F 18.8 °F 30.31 in WNW 5 mph 12 mph 85% 0 in 0.00 W/m2 CLR
06:35 22.4 °F 18.6 °F 30.32 in WNW 2 mph 7 mph 85% 0 in 0.00 W/m2 CLR
06:40 22.2 °F 18.4 °F 30.32 in WNW 1 mph 5 mph 85% 0 in 0.00 W/m2 CLR
06:45 22 °F 18.2 °F 30.32 in WNW 3 mph 8 mph 85% 0 in 0.00 W/m2 CLR
06:50 21.9 °F 18 °F 30.32 in Calm   5 mph 85% 0 in 0.00 W/m2 CLR
06:55 21.7 °F 17.9 °F 30.32 in Calm     85% 0 in 0.00 W/m2 CLR
07:00 21.6 °F 17.8 °F 30.33 in WNW 2 mph 5 mph 85% 0 in 0.00 W/m2 CLR
07:05 21.3 °F 17.5 °F 30.33 in Calm   7 mph 85% 0 in 0.00 W/m2 CLR
07:10 21.1 °F 17.3 °F 30.33 in WNW 1 mph 6 mph 85% 0 in 0.00 W/m2 CLR
07:15 20.9 °F 17.1 °F 30.33 in Calm   7 mph 85% 0 in 0.00 W/m2 CLR
07:20 20.7 °F 16.9 °F 30.33 in Calm   8 mph 85% 0 in 0.00 W/m2 CLR
07:25 20.6 °F 16.8 °F 30.33 in Calm     85% 0 in 0.00 W/m2 CLR
07:30 20.4 °F 16.6 °F 30.33 in Calm   6 mph 85% 0 in 0.00 W/m2 CLR
07:35 20.3 °F 16.5 °F 30.33 in Calm   5 mph 85% 0 in 5.00 W/m2 CLR
07:40 20.2 °F 16.4 °F 30.33 in Calm   4 mph 85% 0 in 9.00 W/m2 CLR
07:45 20 °F 16.3 °F 30.34 in WNW 2 mph 5 mph 85% 0 in 12.00 W/m2 CLR
07:50 19.9 °F 16.1 °F 30.34 in Calm     85% 0 in 19.00 W/m2 CLR
07:55 19.8 °F 16 °F 30.34 in Calm     85% 0 in 21.00 W/m2 CLR
08:00 19.7 °F 15.9 °F 30.35 in Calm     85% 0 in 23.00 W/m2 CLR
08:05 19.7 °F 15.9 °F 30.35 in Calm   1 mph 85% 0 in 25.00 W/m2 CLR
08:10 19.7 °F 15.9 °F 30.35 in Calm     85% 0 in 30.00 W/m2 CLR
08:15 19.7 °F 15.9 °F 30.35 in Calm     85% 0 in 28.00 W/m2 CLR
08:20 19.7 °F 15.9 °F 30.35 in Calm     85% 0 in 30.00 W/m2 CLR
08:25 19.7 °F 15.9 °F 30.35 in Calm   1 mph 85% 0 in 46.00 W/m2 CLR
08:30 19.8 °F 16 °F 30.36 in WNW 2 mph 7 mph 85% 0 in 67.00 W/m2 CLR
08:35 20 °F 16.2 °F 30.35 in Calm   4 mph 85% 0 in 93.00 W/m2 CLR
08:40 20.4 °F 16.6 °F 30.36 in Calm   3 mph 85% 0 in 90.00 W/m2 CLR
08:45 20.6 °F 16.8 °F 30.36 in Calm     85% 0 in 91.00 W/m2 CLR
08:50 20.7 °F 16.9 °F 30.37 in Calm     85% 0 in 98.00 W/m2 CLR
08:55 20.6 °F 16.8 °F 30.37 in Calm     85% 0 in 90.00 W/m2 CLR
09:00 20.6 °F 16.8 °F 30.37 in Calm     85% 0 in 83.00 W/m2 CLR
09:05 20.5 °F 14.7 °F 30.37 in Calm     78% 0 in 79.00 W/m2 CLR
09:10 20.4 °F 14.6 °F 30.37 in WNW 3 mph 7 mph 78% 0 in 111.00 W/m2 CLR
09:15 20.4 °F 14.6 °F 30.38 in WNW 2 mph 7 mph 78% 0 in 139.00 W/m2 CLR
09:20 20.6 °F 14.8 °F 30.38 in WNW 3 mph 7 mph 78% 0 in 128.00 W/m2 CLR
09:25 20.7 °F 14.9 °F 30.38 in Calm   2 mph 78% 0 in 79.00 W/m2 CLR
09:30 20.7 °F 14.9 °F 30.38 in NW 3 mph 9 mph 78% 0 in 91.00 W/m2 CLR
09:35 20.6 °F 14.9 °F 30.38 in Calm   6 mph 78% 0 in 165.00 W/m2 CLR
09:40 21 °F 15.2 °F 30.38 in WNW 3 mph 6 mph 78% 0 in 165.00 W/m2 CLR
09:45 21.3 °F 15.6 °F 30.38 in Calm   6 mph 78% 0 in 179.00 W/m2 CLR
09:50 21.7 °F 15.9 °F 30.38 in Calm     78% 0 in 200.00 W/m2 CLR
09:55 22.1 °F 16.3 °F 30.39 in NW 5 mph 10 mph 78% 0 in 237.00 W/m2 CLR
10:00 21.7 °F 15.9 °F 30.39 in NW 5 mph 9 mph 78% 0 in 237.00 W/m2 CLR
10:05 21.8 °F 18 °F 30.39 in NW 5 mph 12 mph 85% 0 in 248.00 W/m2 CLR
10:10 21.9 °F 18.1 °F 30.39 in NW 3 mph 10 mph 85% 0 in 257.00 W/m2 CLR
10:15 21.8 °F 18 °F 30.39 in Calm     85% 0 in 265.00 W/m2 CLR
10:20 21.9 °F 18.1 °F 30.39 in WNW 1 mph 7 mph 85% 0 in 278.00 W/m2 CLR
10:25 21.8 °F 18 °F 30.39 in WNW 6 mph 8 mph 85% 0 in 260.00 W/m2 CLR
10:30 21.9 °F 18.1 °F 30.39 in West 2 mph 9 mph 85% 0 in 234.00 W/m2 CLR
10:35 22.2 °F 18.4 °F 30.39 in WNW 5 mph 10 mph 85% 0 in 260.00 W/m2 CLR
10:40 22.1 °F 18.3 °F 30.40 in WNW 3 mph 9 mph 85% 0 in 278.00 W/m2 CLR
10:45 22 °F 18.2 °F 30.40 in Calm   3 mph 85% 0 in 274.00 W/m2 CLR
10:50 22.4 °F 18.6 °F 30.40 in Calm   10 mph 85% 0 in 294.00 W/m2 CLR
10:55 22.4 °F 18.6 °F 30.40 in West 3 mph 9 mph 85% 0 in 283.00 W/m2 CLR
11:00 22.4 °F 18.6 °F 30.41 in Calm   9 mph 85% 0 in 225.00 W/m2 CLR
11:05 22.5 °F 18.7 °F 30.40 in WNW 1 mph 8 mph 85% 0 in 279.00 W/m2 CLR
11:10 22.5 °F 18.7 °F 30.40 in Calm   8 mph 85% 0 in 287.00 W/m2 CLR
11:15 22.7 °F 18.9 °F 30.40 in Calm     85% 0 in 283.00 W/m2 CLR
11:20 22.4 °F 18.6 °F 30.40 in Calm     85% 0 in 297.00 W/m2 CLR
11:25 22.7 °F 18.9 °F 30.40 in WNW 2 mph 6 mph 85% 0 in 302.00 W/m2 CLR
11:30 23 °F 19.1 °F 30.40 in West 1 mph 6 mph 85% 0 in 304.00 W/m2 CLR
11:35 23.3 °F 19.5 °F 30.40 in Calm     85% 0 in 318.00 W/m2 CLR
11:40 23.4 °F 19.5 °F 30.40 in West 2 mph 7 mph 85% 0 in 320.00 W/m2 CLR
11:45 23.1 °F 19.3 °F 30.39 in Calm   8 mph 85% 0 in 323.00 W/m2 CLR
11:50 23.1 °F 19.3 °F 30.39 in Calm     85% 0 in 348.00 W/m2 CLR
11:55 23.1 °F 19.3 °F 30.39 in Calm     85% 0 in 355.00 W/m2 CLR
12:00 23.8 °F 19.9 °F 30.39 in WNW 3 mph 9 mph 85% 0 in 318.00 W/m2 CLR
12:05 23.3 °F 19.5 °F 30.39 in West 1 mph 10 mph 85% 0 in 376.00 W/m2 CLR
12:10 23.6 °F 19.8 °F 30.39 in Calm   5 mph 85% 0 in 380.00 W/m2 CLR
12:15 24 °F 20.1 °F 30.39 in West 6 mph 10 mph 85% 0 in 383.00 W/m2 CLR
12:20 23.5 °F 19.6 °F 30.38 in Calm   1 mph 85% 0 in 385.00 W/m2 CLR
12:25 24.2 °F 20.4 °F 30.38 in Calm     85% 0 in 369.00 W/m2 CLR
12:30 24.6 °F 20.7 °F 30.38 in Calm     85% 0 in 373.00 W/m2 CLR
12:35 24.1 °F 20.2 °F 30.38 in Calm     85% 0 in 366.00 W/m2 CLR
12:40 24 °F 20.2 °F 30.38 in Calm     85% 0 in 401.00 W/m2 CLR
12:45 24.9 °F 21 °F 30.38 in Calm     85% 0 in 394.00 W/m2 CLR
12:50 24.5 °F 20.6 °F 30.38 in Calm   8 mph 85% 0 in 376.00 W/m2 CLR
12:55 24.3 °F 20.4 °F 30.38 in Calm   3 mph 85% 0 in 367.00 W/m2 CLR
13:00 24.3 °F 20.4 °F 30.37 in Calm   5 mph 85% 0 in 338.00 W/m2 CLR
13:05 23.9 °F 18.4 °F 30.37 in Calm     79% 0 in 304.00 W/m2 CLR
13:10 23.8 °F 18.2 °F 30.37 in Calm     79% 0 in 322.00 W/m2 CLR
Zumbrota Weather